Juneau, WI

12:44 PM CDT on May 27, 2018 (GMT -0500)
Dodge County

Weather History for KUNU - November, 2011

Change the Weather History Date:

Tuesday, November 8, 2011

  Actual Average Record
Temperature  
Mean Temperature 40 °F -  
Max Temperature 44 °F 46 °F 73 °F (1999)
Min Temperature 37 °F 32 °F 12 °F (1991)
Degree Days  
Heating Degree Days 24    
Moisture  
Dew Point 36 °F    
Average Humidity 87    
Maximum Humidity 100    
Minimum Humidity 43    
Precipitation  
Precipitation 0.47 in - - ()
Sea Level Pressure  
Sea Level Pressure 30.09 in    
Wind  
Wind Speed 10 mph (NNE)    
Max Wind Speed 16 mph    
Max Gust Speed 23 mph    
Visibility 8 miles    
Events Rain    
Averages and records for this station are not official NWS values.
T = Trace of Precipitation, MM = Missing Value Source: NWS Daily Summary

Daily Weather History Graph

Daily Weather History Graph

Search for Another Location

Airport or City:

Astronomy

Nov. 08, 2011 Rise Set
Actual Time 6:38 AM CST 4:37 PM CST
Civil Twilight 6:08 AM CST 5:07 PM CST
Nautical Twilight 5:34 AM CST 5:41 PM CST
Astronomical Twilight 5:00 AM CST 6:15 PM CST
Moon 3:18 PM CST (11/8) 4:35 AM CST (11/8)
Length of Visible Light 10h 59m
Length of Day
9h 58m
Waxing Gibbous, 96% of the Moon is Illuminated
Nov 8
Waxing Gibbous
Nov 10
Full
Nov 18
Last Quarter
Nov 25
New
Dec 2
First Quarter

Hourly Weather History & Observations

Time (CST) Temp. Windchill Dew Point Humidity Pressure Visibility Wind Dir Wind Speed Gust Speed Precip Events Conditions
12:15 AM 42.8 °F 38.6 °F 24.8 °F 49% 30.19 in 10.0 mi North 6.9 mph - N/A   Overcast
12:35 AM 42.8 °F 40.1 °F 24.8 °F 49% 30.19 in 10.0 mi NNE 4.6 mph - N/A   Overcast
12:55 AM 42.8 °F 39.3 °F 24.8 °F 49% 30.19 in 10.0 mi NNE 5.8 mph - N/A   Overcast
1:35 AM 44.6 °F 41.4 °F 23.0 °F 43% 30.19 in 10.0 mi North 5.8 mph - N/A   Overcast
1:55 AM 44.6 °F 41.4 °F 23.0 °F 43% 30.19 in 10.0 mi NNE 5.8 mph - N/A   Overcast
2:55 AM 42.8 °F 36.6 °F 23.0 °F 46% 30.15 in 10.0 mi North 11.5 mph - N/A   Overcast
3:15 AM 42.8 °F 37.5 °F 23.0 °F 46% 30.14 in 10.0 mi North 9.2 mph 16.1 mph N/A   Light Drizzle
3:35 AM 42.8 °F 36.6 °F 24.8 °F 49% 30.15 in 10.0 mi North 11.5 mph - N/A   Overcast
3:55 AM 42.8 °F 35.8 °F 28.4 °F 57% 30.15 in 10.0 mi North 13.8 mph 23.0 mph N/A   Overcast
4:15 AM 41.0 °F 34.3 °F 30.2 °F 65% 30.15 in 10.0 mi North 11.5 mph - N/A   Overcast
4:35 AM 39.2 °F 31.6 °F 32.0 °F 75% 30.16 in 10.0 mi North 12.7 mph 16.1 mph N/A   Overcast
4:55 AM 37.4 °F 29.8 °F 32.0 °F 81% 30.17 in 10.0 mi North 11.5 mph - N/A   Overcast
5:15 AM 37.4 °F 30.3 °F 33.8 °F 87% 30.17 in 10.0 mi NNE 10.4 mph - N/A Rain Light Rain
5:35 AM 37.4 °F 30.8 °F 35.6 °F 93% 30.15 in 10.0 mi NNE 9.2 mph 16.1 mph N/A Rain Rain
6:15 AM 37.4 °F 30.8 °F 35.6 °F 93% 30.15 in 3.0 mi NE 9.2 mph - 0.04 in Rain Rain
6:35 AM 37.4 °F 29.8 °F 35.6 °F 93% 30.13 in 3.0 mi NE 11.5 mph - 0.09 in Rain Rain
6:55 AM 37.4 °F 29.8 °F 35.6 °F 93% 30.12 in 3.0 mi NE 11.5 mph 16.1 mph 0.15 in Rain Rain
7:15 AM 37.4 °F 29.8 °F 37.4 °F 100% 30.12 in 5.0 mi NE 11.5 mph 17.3 mph 0.03 in Rain Rain
7:35 AM 37.4 °F 29.8 °F 37.4 °F 100% 30.12 in 4.0 mi NE 11.5 mph 20.7 mph 0.08 in Rain Rain
7:55 AM 37.4 °F 32.1 °F 37.4 °F 100% 30.13 in 4.0 mi North 6.9 mph - 0.14 in Rain Rain
8:15 AM 37.4 °F 30.8 °F 37.4 °F 100% 30.12 in 4.0 mi NNE 9.2 mph - 0.05 in Rain Rain
8:35 AM 37.4 °F 29.3 °F 37.4 °F 100% 30.11 in 5.0 mi NNE 12.7 mph - 0.09 in Rain Rain
8:55 AM 37.4 °F 28.5 °F 37.4 °F 100% 30.09 in 7.0 mi NE 15.0 mph 23.0 mph 0.12 in Rain Light Rain
9:15 AM 39.2 °F 30.8 °F 37.4 °F 93% 30.07 in 7.0 mi NE 15.0 mph 20.7 mph 0.02 in Rain Light Rain
9:35 AM 39.2 °F 30.5 °F 37.4 °F 93% 30.07 in 10.0 mi NNE 16.1 mph 21.9 mph 0.03 in Rain Light Rain
9:55 AM 41.0 °F 33.1 °F 37.4 °F 87% 30.07 in 10.0 mi NNE 15.0 mph 23.0 mph 0.03 in   Drizzle
10:15 AM 41.0 °F 34.7 °F 37.4 °F 87% 30.09 in 10.0 mi North 10.4 mph - N/A Rain Rain
10:35 AM 39.2 °F 32.0 °F 37.4 °F 93% 30.09 in 7.0 mi North 11.5 mph - 0.01 in Rain Rain
10:55 AM 39.2 °F 32.0 °F 37.4 °F 93% 30.08 in 7.0 mi North 11.5 mph - 0.02 in   Heavy Drizzle
11:15 AM 39.2 °F 31.6 °F 37.4 °F 93% 30.09 in 5.0 mi North 12.7 mph 20.7 mph 0.01 in   Drizzle
11:35 AM 39.2 °F 33.0 °F 37.4 °F 93% 30.08 in 7.0 mi North 9.2 mph - 0.01 in   Drizzle
11:55 AM 39.2 °F 32.5 °F 39.2 °F 100% 30.07 in 7.0 mi North 10.4 mph - 0.01 in   Drizzle
12:15 PM 41.0 °F 35.8 °F 39.2 °F 93% 30.06 in 7.0 mi NNE 8.1 mph - N/A   Drizzle
12:35 PM 41.0 °F 34.3 °F 39.2 °F 93% 30.05 in 7.0 mi NNE 11.5 mph 16.1 mph N/A   Drizzle
12:55 PM 41.0 °F 34.3 °F 39.2 °F 93% 30.05 in 7.0 mi North 11.5 mph 17.3 mph N/A   Drizzle
1:15 PM 41.0 °F 34.3 °F 41.0 °F 100% 30.04 in 7.0 mi North 11.5 mph - N/A   Light Drizzle
1:35 PM 41.0 °F 34.7 °F 41.0 °F 100% 30.04 in 5.0 mi North 10.4 mph - N/A   Drizzle
1:55 PM 41.0 °F 34.3 °F 41.0 °F 100% 30.03 in 4.0 mi NNE 11.5 mph 17.3 mph N/A   Light Drizzle
2:15 PM 41.0 °F 34.3 °F 41.0 °F 100% 30.03 in 4.0 mi North 11.5 mph - N/A Rain Light Rain
2:35 PM 41.0 °F 34.7 °F 41.0 °F 100% 30.04 in 7.0 mi North 10.4 mph - N/A   Overcast
2:55 PM 41.0 °F 34.3 °F 41.0 °F 100% 30.04 in 10.0 mi North 11.5 mph - N/A   Overcast
3:15 PM 41.0 °F 34.7 °F 41.0 °F 100% 30.04 in 10.0 mi North 10.4 mph - N/A   Overcast
3:35 PM 41.0 °F 34.3 °F 41.0 °F 100% 30.05 in 10.0 mi North 11.5 mph - N/A   Overcast
3:55 PM 41.0 °F 34.3 °F 41.0 °F 100% 30.05 in 10.0 mi NNE 11.5 mph 16.1 mph N/A   Overcast
4:15 PM 41.0 °F 34.7 °F 41.0 °F 100% 30.05 in 10.0 mi North 10.4 mph - N/A   Overcast
4:35 PM 41.0 °F 34.3 °F 41.0 °F 100% 30.05 in 10.0 mi North 11.5 mph 16.1 mph N/A   Overcast
4:55 PM 41.0 °F 34.3 °F 39.2 °F 93% 30.05 in 10.0 mi North 11.5 mph 18.4 mph N/A   Overcast
5:15 PM 41.0 °F 33.1 °F 39.2 °F 93% 30.04 in 10.0 mi NNE 15.0 mph - N/A   Overcast
5:35 PM 41.0 °F 34.3 °F 39.2 °F 93% 30.04 in 10.0 mi NNE 11.5 mph 17.3 mph N/A   Overcast
5:55 PM 41.0 °F 33.9 °F 39.2 °F 93% 30.05 in 10.0 mi NNE 12.7 mph 19.6 mph N/A   Overcast
6:15 PM 41.0 °F 34.7 °F 37.4 °F 87% 30.06 in 10.0 mi North 10.4 mph - N/A   Overcast
6:35 PM 41.0 °F 34.3 °F 37.4 °F 87% 30.05 in 10.0 mi NNE 11.5 mph - N/A   Overcast
6:55 PM 41.0 °F 34.7 °F 37.4 °F 87% 30.05 in 10.0 mi North 10.4 mph - N/A Rain Light Rain
7:15 PM 41.0 °F 33.5 °F 39.2 °F 93% 30.05 in 10.0 mi North 13.8 mph 18.4 mph N/A   Drizzle
7:35 PM 41.0 °F 35.2 °F 39.2 °F 93% 30.04 in 10.0 mi North 9.2 mph - N/A Rain Light Rain
7:55 PM 41.0 °F 34.7 °F 39.2 °F 93% 30.04 in 10.0 mi North 10.4 mph - N/A   Light Drizzle
8:15 PM 41.0 °F 34.3 °F 39.2 °F 93% 30.04 in 10.0 mi NNE 11.5 mph - N/A Rain Rain
8:35 PM 41.0 °F 33.9 °F 39.2 °F 93% 30.04 in 10.0 mi North 12.7 mph - N/A Rain Light Rain
9:15 PM 41.0 °F 35.8 °F 39.2 °F 93% 30.04 in 10.0 mi North 8.1 mph - N/A Rain Light Rain
9:35 PM 41.0 °F 35.8 °F 39.2 °F 93% 30.04 in 10.0 mi North 8.1 mph - N/A Rain Light Rain
9:55 PM 41.0 °F 35.2 °F 39.2 °F 93% 30.02 in 10.0 mi North 9.2 mph - N/A   Drizzle
10:15 PM 41.0 °F 35.2 °F 39.2 °F 93% 30.01 in 10.0 mi North 9.2 mph - N/A Rain Light Rain
10:35 PM 41.0 °F 35.2 °F 39.2 °F 93% 30.00 in 10.0 mi North 9.2 mph 16.1 mph N/A   Light Drizzle
10:55 PM 41.0 °F 34.7 °F 39.2 °F 93% 30.00 in 10.0 mi North 10.4 mph 16.1 mph N/A   Drizzle
11:15 PM 41.0 °F 34.7 °F 41.0 °F 100% 29.99 in 10.0 mi North 10.4 mph - N/A Rain Light Rain
11:35 PM 41.0 °F 34.7 °F 41.0 °F 100% 29.98 in 5.0 mi North 10.4 mph - N/A Rain Light Rain
11:55 PM 41.0 °F 33.9 °F 41.0 °F 100% 29.97 in 4.0 mi North 12.7 mph 18.4 mph N/A   Light Drizzle